This demonstration page uses our WeatherBlox Daily Observations layout. Learn more.

Hourly Observations for March 17, 2016

Temp ( °F °C ) Dew Point ( °F °C ) Humidity (%) Winds ( mph kmh ) Pressure ( in mb ) Visibility ( mi km ) Precip ( " mm )
12:15 am 00:15 Clear 32 -0.2 16 -9.1 52 52 NW 6 9 30.09 1019 10 16.0934 0 0
12:35 am 00:35 Clear 29 -1.6 15 -9.5 55 55 NW 3 6 30.15 1021 10 16.0934 0 0
12:55 am 00:55 Clear 31 -0.8 15 -9.2 53 53 WNW 5 7 30.12 1020 10 16.0934 0 0
1:15 am 01:15 Clear 30 -1 15 -9.6 52 52 W 5 7 30.12 1020 10 16.0934 0 0
1:35 am 01:35 Clear 29 -1.6 15 -9.7 54 54 W 7 11 30.12 1020 10 16.0934 0 0
1:55 am 01:55 Clear 31 -0.7 15 -9.4 52 52 W 8 13 30.12 1020 10 16.0934 0 0
2:15 am 02:15 Clear 32 0 15 -9.7 48 48 WNW 5 7 30.09 1019 10 16.0934 0 0
2:35 am 02:35 Clear 32 -0.2 14 -9.8 49 49 W 8 13 30.09 1019 10 16.0934 0 0
2:55 am 02:55 Clear 34 0.9 14 -10.2 44 44 WNW 8 13 30.09 1019 10 16.0934 0 0
3:15 am 03:15 Clear 32 -0.1 13 -10.3 47 47 W 7 11 30.12 1020 10 16.0934 0 0
3:35 am 03:35 Clear 30 -1.1 15 -9.5 53 53 SW 6 9 30.15 1021 10 16.0934 0 0
3:55 am 03:55 Clear 28 -2.1 15 -9.3 58 58 Calm 30.12 1020 10 16.0934 0 0
4:15 am 04:15 Clear 26 -3.6 15 -9.5 64 64 WNW 6 9 30.15 1021 10 16.0934 0 0
4:35 am 04:35 Clear 25 -3.7 15 -9.4 65 65 W 9 15 30.15 1021 10 16.0934 0 0
4:55 am 04:55 Clear 26 -3.6 15 -9.3 65 65 W 8 13 30.15 1021 10 16.0934 0 0
5:15 am 05:15 Clear 28 -2.3 16 -9.1 60 60 WNW 8 13 30.12 1020 10 16.0934 0 0
5:35 am 05:35 Clear 26 -3.4 14 -10.1 60 60 WNW 3 6 30.12 1020 10 16.0934 0 0
5:55 am 05:55 Clear 25 -3.7 14 -10 62 62 W 3 6 30.15 1021 10 16.0934 0 0
6:15 am 06:15 Clear 27 -2.7 15 -9.7 59 59 W 3 6 30.12 1020 10 16.0934 0 0
6:35 am 06:35 Clear 27 -2.7 15 -9.7 59 59 W 5 7 30.12 1020 10 16.0934 0 0
6:55 am 06:55 Clear 26 -3.6 14 -10 62 62 W 3 6 30.15 1021 10 16.0934 0 0
7:15 am 07:15 Clear 23 -5 14 -10.2 67 67 NNW 7 11 30.15 1021 10 16.0934 0 0
7:35 am 07:35 Clear 22 -5.4 13 -10.4 68 68 NW 6 9 30.15 1021 10 16.0934 0 0
7:55 am 07:55 Sunny 25 -3.7 15 -9.5 64 64 NW 6 9 30.15 1021 10 16.0934 0 0
8:15 am 08:15 Sunny 26 -3.5 17 -8.6 68 68 NW 5 7 30.15 1021 10 16.0934 0 0
8:35 am 08:35 Sunny 28 -2.3 19 -7.4 68 68 WNW 5 7 30.12 1020 10 16.0934 0 0
8:55 am 08:55 Sunny 31 -0.7 19 -7 63 63 NW 5 7 30.12 1020 10 16.0934 0 0
9:15 am 09:15 Sunny 34 1 20 -6.8 56 56 NW 7 11 30.09 1019 10 16.0934 0 0
9:35 am 09:35 Sunny 38 3.3 20 -6.5 49 49 NW 6 9 30.06 1018 10 16.0934 0 0
9:55 am 09:55 Partly Cloudy 40 4.6 19 -7.4 42 42 NW 8 13 30.06 1018 10 16.0934 0 0
10:15 am 10:15 Partly Cloudy 42 5.5 19 -7.5 39 39 NW 8 13 30.06 1018 10 16.0934 0 0
10:35 am 10:35 Mostly Cloudy 43 6.2 17 -8.1 35 35 NW 8 13 30.03 1017 10 16.0934 0 0
10:55 am 10:55 Mostly Cloudy 45 7 18 -7.9 34 34 NW 8 13 30.03 1017 10 16.0934 0 0
11:15 am 11:15 Cloudy 47 8.2 17 -8.4 30 30 NW 7 11 30.03 1017 10 16.0934 0 0
11:35 am 11:35 Cloudy 48 9 17 -8.6 28 28 NW 7 11 30.03 1017 10 16.0934 0 0
11:55 am 11:55 Cloudy 45 7.4 21 -6.3 37 37 W 5 7 30.03 1017 10 16.0934 0 0
12:15 pm 12:15 Cloudy 46 7.6 22 -5.4 40 40 W 3 6 30.03 1017 10 16.0934 0 0
12:35 pm 12:35 Cloudy 46 7.8 22 -5.5 39 39 SW 6 9 30.03 1017 10 16.0934 0 0
12:55 pm 12:55 Cloudy 46 7.7 22 -5.7 38 38 SW 6 9 30.03 1017 10 16.0934 0 0
1:15 pm 13:15 Cloudy 47 8.3 21 -6.2 36 36 WSW 7 11 30.03 1017 10 16.0934 0 0
1:35 pm 13:35 Mostly Cloudy 49 9.4 18 -7.8 29 29 WSW 7 11 30 1016 10 16.0934 0 0
1:55 pm 13:55 Mostly Cloudy 50 10 12 -10.9 22 22 SW 8 13 30 1016 10 16.0934 0 0
2:15 pm 14:15 Cloudy 50 9.8 13 -10.7 23 23 WSW 6 9 30 1016 10 16.0934 0 0
2:35 pm 14:35 Cloudy 50 10.1 13 -10.7 22 22 W 5 7 30 1016 10 16.0934 0 0
2:55 pm 14:55 Cloudy 50 10.1 15 -9.7 24 24 N 9 15 29.97 1015 10 16.0934 0 0
3:15 pm 15:15 Mostly Cloudy 51 10.6 15 -9.3 24 24 NW 6 9 29.97 1015 10 16.0934 0 0
3:35 pm 15:35 Cloudy 51 10.5 15 -9.5 24 24 W 7 11 29.97 1015 10 16.0934 0 0
3:55 pm 15:55 Mostly Cloudy 51 10.3 14 -9.8 23 23 W 8 13 29.97 1015 10 16.0934 0 0
4:15 pm 16:15 Cloudy 51 10.5 15 -9.3 24 24 W 15 24 29.97 1015 10 16.0934 0 0
4:35 pm 16:35 Cloudy 50 10.1 15 -9.4 25 25 NNW 6 9 29.97 1015 10 16.0934 0 0
4:55 pm 16:55 Mostly Cloudy 49 9.5 15 -9.2 26 26 Calm 29.97 1015 10 16.0934 0 0
5:15 pm 17:15 Cloudy 51 10.5 15 -9.3 24 24 W 7 11 29.97 1015 10 16.0934 0 0
5:35 pm 17:35 Mostly Cloudy 50 9.9 14 -10.1 24 24 Calm 29.97 1015 10 16.0934 0 0
5:55 pm 17:55 Partly Cloudy 50 9.8 15 -9.2 25 25 Calm 29.97 1015 10 16.0934 0 0
6:15 pm 18:15 Mostly Cloudy 49 9.5 14 -10.1 24 24 Calm 29.97 1015 10 16.0934 0 0
6:30 pm 18:30 Cloudy 49 9.2 15 -9.2 26 26 Calm 29.97 1015 10 16.0934 0 0
6:55 pm 18:55 Cloudy 48 8.7 16 -9.1 28 28 Calm 30 1016 10 16.0934 0 0
7:15 pm 19:15 Mostly Cloudy 47 8.4 15 -9.6 27 27 Calm 30 1016 10 16.0934 0 0
7:35 pm 19:35 Mostly Cloudy 46 7.6 15 -9.7 28 28 WNW 5 7 30 1016 10 16.0934 0 0
7:55 pm 19:55 Mostly Cloudy 45 7 15 -9.3 31 31 NW 5 7 30.03 1017 10 16.0934 0 0
8:15 pm 20:15 Mostly Cloudy 44 6.9 16 -8.8 32 32 N 7 11 30.03 1017 10 16.0934 0 0
8:35 pm 20:35 Mostly Cloudy 42 5.6 16 -9 34 34 N 5 7 30.06 1018 10 16.0934 0 0
8:55 pm 20:55 Mostly Cloudy 42 5.4 15 -9.2 34 34 N 6 9 30.06 1018 10 16.0934 0 0
9:15 pm 21:15 Mostly Cloudy 41 5 16 -8.9 36 36 N 5 7 30.09 1019 10 16.0934 0 0
9:35 pm 21:35 Partly Cloudy 42 5.3 17 -8.4 37 37 NE 8 13 30.09 1019 10 16.0934 0 0
9:55 pm 21:55 Partly Cloudy 40 4.5 18 -8 40 40 NE 6 9 30.09 1019 10 16.0934 0 0
10:15 pm 22:15 Partly Cloudy 40 4.2 18 -7.7 42 42 NE 7 11 30.09 1019 10 16.0934 0 0
10:35 pm 22:35 Mostly Cloudy 40 4.5 19 -7.4 42 42 NE 7 11 30.09 1019 10 16.0934 0 0
10:55 pm 22:55 Cloudy 39 4 19 -7.3 44 44 NE 7 11 30.09 1019 10 16.0934 0 0
11:15 pm 23:15 Partly Cloudy 39 3.8 20 -6.9 46 46 NE 6 9 30.09 1019 10 16.0934 0 0
11:35 pm 23:35 Partly Cloudy 38 3.1 19 -7.2 47 47 NNE 14 22 30.15 1021 10 16.0934 0 0
11:55 pm 23:55 Partly Cloudy 41 5 19 -7.5 40 40 NNE 14 22 30.12 1020 10 16.0934 0 0

Powered by AerisWeather